Вернуться в каталог

FENGYUN 1C DEB

АктивенPO
NORAD 29800·DEBRIS·🇨🇳 China

Запущен May 10, 1999 с Taiyuan Satellite Launch Center

Loading…

Ближайшие Пролёты (ближайшие 24 часа)

TLE

СвежийSource: Space-Track

Эпоха: Sep 12, 2026, 23:48 UTC

1 29800U 99025CS  26255.99195334  .00001638  00000-0  10592-2 0  9994
2 29800  98.2806 256.6279 0131133 173.8552 212.3617 13.99917633994122

Отслеживайте FENGYUN 1C DEB в реальном времени с AllMySat

Download on the App Store